This is the latest recevied weather packets stored in our database for station/object KC1TEM-13. If no packets are shown the sender has not sent any weather packets the latest 10 day(s).
| Time | Temp. | Humidity | Pressure | Rain* | Wind** | Luminosity | Snow |
|---|---|---|---|---|---|---|---|
| 1777470003 | 8.33° C | 88% | 1018.8 hPa | 0 mm | - | 115 W/m² | - |
| 1777469698 | 8.89° C | 86% | 1018.7 hPa | 0 mm | - | 124 W/m² | - |
| 1777469395 | 8.33° C | 88% | 1019 hPa | 0 mm | - | 161 W/m² | - |
| 1777469095 | 8.33° C | 88% | 1018.9 hPa | 0 mm | - | 153 W/m² | - |
| 1777468789 | 8.33° C | 89% | 1019.1 hPa | 0 mm | - | 198 W/m² | - |
| 1777468486 | 8.33° C | 89% | 1019.2 hPa | 0 mm | - | 149 W/m² | - |
| 1777468183 | 8.33° C | 90% | 1019 hPa | 0 mm | - | 157 W/m² | - |
| 1777467879 | 8.33° C | 91% | 1019.3 hPa | 0 mm | - | 139 W/m² | - |
| 1777467574 | 7.78° C | 91% | 1019.3 hPa | 0 mm | - | 205 W/m² | - |
| 1777467270 | 7.78° C | 91% | 1019.1 hPa | 0 mm | - | 140 W/m² | - |
| 1777466966 | 7.78° C | 90% | 1019.1 hPa | 0 mm | - | 100 W/m² | - |
| 1777466664 | 7.78° C | 90% | 1019.2 hPa | 0 mm | - | 71 W/m² | - |
| 1777466361 | 7.78° C | 91% | 1019.3 hPa | 0 mm | - | 107 W/m² | - |
| 1777466057 | 7.78° C | 91% | 1019.3 hPa | 0 mm | - | 91 W/m² | - |
| 1777465754 | 7.78° C | 91% | 1019.3 hPa | 0 mm | - | 77 W/m² | - |
| 1777465450 | 7.78° C | 91% | 1019.2 hPa | 0 mm | - | 77 W/m² | - |
| 1777465148 | 7.78° C | 91% | 1019.4 hPa | 0 mm | - | 80 W/m² | - |
| 1777464844 | 7.78° C | 90% | 1019.2 hPa | 0 mm | - | 70 W/m² | - |
| 1777464539 | 7.78° C | 90% | 1019.2 hPa | 0 mm | - | 78 W/m² | - |
| 1777464235 | 7.78° C | 90% | 1019.4 hPa | 0 mm | - | 86 W/m² | - |
| 1777463930 | 7.78° C | 90% | 1019.4 hPa | 0 mm | - | 78 W/m² | - |
| 1777463626 | 7.78° C | 90% | 1019.3 hPa | 0 mm | - | 76 W/m² | - |
| 1777463321 | 7.78° C | 90% | 1019.3 hPa | 0 mm | - | 73 W/m² | - |
| 1777463018 | 7.22° C | 90% | 1019.2 hPa | 0 mm | - | 68 W/m² | - |
| 1777462713 | 7.22° C | 90% | 1019.3 hPa | 0 mm | - | 56 W/m² | - |
* Rain latest hour (hover to see other rain measurements)
** Current wind speed in m/s (hover to see current wind gust speed)